Location: Moscow Pond
(43.6842°N, 73.2366°W)
Time: 07:08:08
(UTC+00:00)

Cosmos 2322 - Pass Details

Date: 08 November 2025
Orbit: 841 x 852 km, 71.0° (Epoch: 10 December)

Event Time Altitude Azimuth Distance (km) Brightness Sun altitude
Exits shadow 09:55:51 26° 241° (WSW) 1,600 4.7 -18.7°
Maximum altitude 09:58:43 48° 301° (WNW) 1,098 3.9 -18.2°
Drops below altitude 10° 10:04:12 10° 15° (NNE) 2,473 6.2 -17.2°
Sets 10:06:45 0° 21° (NNE) 3,410 7.0 -16.8°
